GFSGBSN_500_rhum_021.txt.gz
RH
20 38 66 51 61 53 36 23 27 33 31 33 42 42 36 40 35 39 57 71 66 50 45 57 54 56 48 27 32 21 17 17 20 26 45 50 55 72 48 55 59 41 28 42 60 44 11
29 58 69 65 48 69 32 20 22 32 32 38 49 44 37 42 40 49 52 56 65 68 72 65 62 41 22 30 48 23 16 16 28 37 56 43 82 84 77 74 32 12 6 3 3 2 2
47 76 81 56 66 33 31 19 18 35 40 44 50 41 42 41 37 70 65 63 74 81 83 54 26 25 48 28 26 17 15 13 11 21 18 14 85 78 46 25 3 2 5 6 7 9 10
29 49 55 64 52 30 25 16 25 36 47 48 61 36 33 23 71 62 61 90 100 87 29 20 21 47 29 26 18 16 15 12 11 10 9 10 19 11 7 7 8 9 13 10 21 18 14
16 27 62 69 31 30 18 13 30 44 46 50 29 31 44 77 81 84 92 96 42 16 24 25 29 29 28 23 19 15 12 7 12 8 4 3 10 7 10 67 66 80 98 85 82 31 14
31 59 68 41 32 20 14 13 30 45 56 56 70 89 89 94 93 93 40 16 17 22 25 26 26 26 21 11 9 8 6 6 4 8 14 23 37 51 83 45 57 84 99 86 75 32 22
61 72 53 40 20 15 12 27 43 61 46 78 88 60 13 62 39 12 14 19 23 25 25 18 15 12 12 11 15 16 15 12 10 18 31 39 14 18 20 45 92 84 78 75 49 20 22
64 72 49 29 14 13 26 34 51 58 40 27 81 35 10 13 14 15 13 12 11 14 14 12 17 21 27 26 27 26 24 23 25 25 26 39 25 54 76 49 47 84 62 47 12 18 22
62 63 36 16 11 28 32 45 43 40 27 11 13 10 14 12 10 8 10 12 15 18 22 20 21 18 16 15 15 16 16 18 19 21 19 23 40 42 30 19 24 21 23 28 23 16 20
57 51 23 13 22 36 41 46 24 22 15 9 10 11 9 9 11 13 17 18 18 21 16 11 9 8 7 7 8 10 12 12 14 16 13 17 18 18 18 18 18 16 15 17 14 15 19
64 50 18 13 38 41 44 39 20 34 8 9 8 7 10 14 18 19 18 15 14 11 8 6 7 7 6 7 7 7 10 14 16 16 15 16 15 15 17 22 21 21 23 21 21 21 21
71 40 15 15 41 44 45 24 26 26 8 7 6 10 16 18 18 16 15 11 10 14 8 9 8 9 8 7 7 6 6 6 12 11 10 21 24 23 21 20 16 14 12 12 12 12 12
72 30 14 22 40 42 33 18 18 7 8 6 9 14 18 18 16 15 9 8 44 34 9 9 9 8 7 6 5 4 5 6 6 6 7 8 11 11 11 12 14 17 19 21 24 59 40
82 28 14 36 39 33 20 15 10 7 7 10 13 18 18 15 16 11 8 9 16 9 9 10 10 9 7 5 4 5 5 6 9 11 11 9 14 16 22 20 22 20 21 21 27 36 48
80 28 18 46 34 26 16 9 6 8 7 11 14 16 14 14 11 9 10 11 10 9 10 10 9 7 5 4 5 5 9 12 13 13 14 18 21 21 22 27 28 30 32 32 33 35 39
52 22 31 56 31 18 9 6 6 8 8 11 13 15 13 13 10 10 10 10 15 10 9 8 6 4 8 9 9 10 13 13 13 18 28 22 24 28 27 30 33 32 32 33 32 33 39
40 18 47 51 23 14 5 4 7 7 8 10 12 14 11 12 9 9 10 10 11 9 8 6 5 13 20 15 14 17 19 23 29 24 20 26 29 34 33 30 25 23 23 26 28 28 32
40 22 54 38 17 12 3 4 7 6 8 10 10 13 12 10 10 10 11 10 9 8 7 4 14 27 28 21 20 22 27 28 21 23 26 34 32 32 28 27 28 24 24 23 25 30 31
30 39 58 35 14 9 3 4 6 6 7 8 10 11 10 10 10 10 9 8 7 7 6 5 24 29 24 23 20 21 19 20 24 30 30 27 27 24 26 28 29 24 21 20 22 24 30
22 60 66 34 14 7 3 5 6 6 6 8 9 10 10 10 10 9 8 7 7 6 4 6 28 27 24 23 19 21 18 25 31 28 24 22 20 19 22 23 21 19 19 20 22 28 25
40 67 91 27 13 7 4 5 6 6 6 7 9 10 12 10 7 8 7 6 6 5 4 8 25 24 19 19 16 14 20 26 29 20 18 16 17 17 17 17 17 16 17 18 18 26 28
64 84 71 26 13 9 5 6 7 6 6 7 10 13 11 10 9 8 6 6 5 4 4 11 24 26 15 11 10 11 17 20 24 15 15 16 16 17 18 18 18 18 18 18 17 21 25
78 92 84 35 14 11 6 6 7 7 7 7 10 13 9 8 8 6 6 5 5 4 5 11 27 24 22 15 16 14 19 18 17 15 15 14 15 16 18 19 19 19 20 18 18 22 23
82 92 88 62 20 14 8 6 6 7 6 8 10 13 10 9 7 6 6 5 4 4 5 5 18 26 32 22 13 12 13 14 15 15 14 14 15 17 20 20 19 19 18 20 19 20 22
88 96 89 69 53 20 42 14 6 6 6 6 8 10 10 8 8 6 5 5 4 4 4 6 22 32 28 22 15 14 14 13 13 14 14 16 17 18 19 19 19 18 18 20 20 20 26
84 98 98 76 59 50 28 42 25 6 5 6 6 8 9 8 7 7 5 4 4 4 5 8 14 23 33 24 14 13 13 13 14 15 16 17 17 18 19 19 18 17 17 19 20 21 23
61 96 100 97 75 56 44 32 42 42 10 5 6 7 7 6 6 5 5 5 5 5 4 4 8 14 26 26 16 14 15 14 15 16 17 17 17 18 20 18 18 19 18 20 21 22 25
39 69 99 100 97 80 56 40 35 26 21 19 6 4 4 4 4 4 5 5 4 4 5 7 8 13 20 28 23 16 16 16 15 16 17 18 18 20 19 19 18 19 19 21 23 26 29
26 40 75 100 100 100 89 58 42 33 29 20 12 7 5 5 5 4 4 6 4 4 4 14 9 18 21 30 24 19 17 17 17 17 18 18 20 21 20 20 23 25 25 23 26 29 41

GFSGBSN_500_rhum_024.txt.gz
RH
8 8 12 11 14 29 44 62 56 36 20 31 35 32 40 41 29 44 52 60 66 61 49 39 40 39 33 38 38 25 19 18 17 20 56 74 88 96 76 72 73 66 70 71 64 57 55
7 12 12 11 23 32 44 52 57 24 21 30 34 35 48 36 37 40 38 46 67 66 59 50 46 35 33 45 30 22 20 20 24 24 47 62 67 87 67 66 66 57 56 38 47 55 16
10 14 12 10 37 36 41 54 40 20 18 33 38 40 50 44 40 43 41 53 56 71 74 62 48 41 48 26 32 19 18 21 28 30 51 42 33 65 64 62 57 42 4 4 8 8 8
12 13 10 10 20 18 44 44 24 20 21 36 46 47 52 53 40 35 66 71 62 73 84 84 71 37 30 39 41 40 19 21 14 20 21 29 29 27 32 10 5 5 7 16 16 13 14
14 13 9 13 13 18 40 47 21 16 28 40 46 46 44 36 29 62 68 70 76 83 95 44 22 39 36 32 23 21 15 13 13 23 36 32 21 22 28 34 57 34 14 30 21 47 21
14 12 9 12 23 44 52 25 18 15 33 46 52 42 41 29 82 72 66 61 95 49 26 26 34 36 32 23 16 16 14 14 18 37 19 29 40 62 66 71 76 75 46 21 31 41 34
15 10 10 12 31 56 37 17 14 23 45 72 52 78 88 56 93 95 99 71 19 22 32 35 35 31 26 21 16 14 15 16 11 16 75 40 36 42 42 84 82 90 78 54 48 37 33
14 10 9 20 51 48 21 15 17 38 57 47 79 66 23 91 95 79 18 16 22 24 27 28 24 20 13 10 10 10 8 12 20 29 20 17 18 37 40 46 95 94 82 66 32 34 44
14 11 8 40 60 32 17 14 31 53 56 42 51 52 13 21 28 14 17 24 28 25 22 18 16 14 17 22 23 25 23 24 29 28 15 24 34 26 34 53 50 90 79 59 56 30 29
14 8 15 53 48 19 12 26 43 47 46 25 17 27 11 12 15 18 18 21 18 18 21 22 26 22 18 18 17 19 21 20 19 19 20 30 46 26 24 26 22 23 31 45 33 20 20
11 12 34 52 24 12 23 32 44 37 25 18 10 10 12 14 16 16 16 16 21 22 24 17 13 10 9 10 10 12 12 14 16 18 19 18 18 15 16 20 16 16 16 18 20 23 24
13 19 38 45 23 12 36 41 43 24 28 12 10 10 10 12 15 17 18 18 17 14 10 9 8 8 8 9 8 9 10 13 17 18 24 24 25 27 28 26 25 23 19 16 14 13 13
20 25 50 44 25 19 41 44 37 23 23 8 8 8 12 16 20 19 18 14 15 15 8 9 9 9 9 9 8 8 7 8 11 13 15 20 21 16 13 11 11 13 18 21 21 25 42
18 29 62 46 12 31 44 46 32 28 13 7 8 13 18 18 18 16 14 18 43 11 10 10 10 9 8 8 7 5 6 7 8 10 9 9 10 10 12 16 17 19 20 22 25 28 38
24 56 73 28 13 38 46 41 21 31 8 7 11 17 18 19 16 16 12 58 17 9 10 10 10 10 9 6 5 4 5 6 8 10 11 15 24 20 17 23 26 27 31 31 31 34 36
50 85 53 19 14 39 43 32 19 16 8 8 14 18 19 17 15 12 11 18 11 10 10 9 8 6 5 4 5 5 8 10 10 11 14 22 19 22 25 30 30 25 21 22 24 25 29
77 98 48 17 22 41 38 22 16 8 9 9 16 19 18 15 11 8 10 12 10 11 10 8 6 7 10 12 10 10 13 14 12 20 19 19 25 31 32 25 25 22 22 22 22 23 23
85 100 55 16 40 38 30 16 11 6 9 13 18 18 15 13 10 10 10 11 14 11 9 6 7 23 25 16 14 19 19 20 26 19 22 27 31 29 28 25 25 23 21 20 18 20 22
91 92 43 18 52 40 22 12 7 7 10 14 17 17 13 12 10 11 9 10 13 9 8 5 11 30 30 23 23 25 22 24 20 23 30 30 30 26 26 28 27 24 19 16 14 15 17
100 81 22 32 60 33 18 8 5 7 10 13 14 15 12 12 13 11 9 10 11 8 7 5 16 30 26 20 24 22 22 21 24 31 27 25 26 22 20 23 20 18 16 16 16 16 17
100 57 20 57 48 21 14 5 5 7 9 11 12 14 13 12 10 10 9 10 8 7 6 4 10 27 23 21 21 19 19 23 30 30 25 24 19 17 17 17 17 17 18 18 18 18 18
100 31 38 64 38 16 10 5 5 7 8 10 10 12 12 12 11 11 10 9 7 6 5 5 8 24 19 14 20 22 19 27 32 31 22 18 16 16 17 18 18 19 20 20 19 19 19
88 31 62 62 29 15 8 4 5 7 8 8 9 10 11 11 10 9 9 9 6 6 5 4 5 22 28 25 19 25 22 26 32 33 22 16 16 15 15 16 18 19 20 20 19 18 20
75 54 74 73 24 14 9 5 5 7 7 7 8 9 10 11 11 10 9 8 6 6 5 4 5 18 32 30 25 14 16 17 25 24 23 20 17 15 15 16 18 19 20 20 19 19 20
49 83 84 85 20 15 10 6 5 6 7 6 7 8 10 12 12 10 10 7 5 5 5 5 5 11 26 29 30 24 14 14 15 17 21 22 21 18 18 18 18 18 20 20 19 20 22
74 92 93 69 21 22 21 8 6 7 7 7 7 8 10 15 12 9 8 7 6 5 5 4 4 5 10 23 32 30 20 14 14 14 16 18 19 19 18 18 17 18 19 19 19 23 26
93 99 100 80 32 32 56 21 7 7 8 8 8 9 11 13 15 11 8 8 7 6 5 5 5 5 5 12 18 22 26 18 14 14 16 17 19 19 19 18 17 19 20 20 20 26 34
100 100 100 84 69 32 45 62 37 14 8 8 8 7 10 11 11 11 9 8 7 7 6 6 6 6 6 8 11 15 24 24 17 14 18 19 19 21 20 20 19 20 19 20 35 51 37
100 100 100 82 71 61 46 53 61 33 16 9 7 6 6 7 9 9 9 8 6 5 5 5 5 5 5 6 8 14 21 23 25 21 23 21 22 21 21 21 22 20 21 24 40 42 33

GFSGBSN_500_rhum_027.txt.gz
RH
14 11 11 12 14 13 16 12 18 28 34 52 31 21 35 32 39 38 32 35 48 65 54 34 34 42 42 44 52 46 35 22 20 20 20 77 97 98 100 98 99 88 81 80 72 68 76
13 8 8 8 12 13 17 12 22 25 37 52 25 25 35 34 42 40 35 50 54 66 66 38 32 38 41 47 54 39 24 22 29 20 45 91 91 94 92 84 81 89 73 66 53 54 57
11 10 9 9 15 13 14 10 16 23 43 39 20 27 37 37 49 38 40 37 42 66 68 46 38 40 52 54 43 30 22 20 18 54 74 84 92 80 79 76 74 63 62 32 35 27 6
15 7 8 16 21 15 14 10 9 22 40 22 21 32 39 45 47 48 43 44 51 58 68 53 39 67 65 40 31 26 20 20 24 62 76 82 93 81 72 70 65 63 34 25 9 7 10
18 13 10 10 19 17 11 9 11 33 41 20 23 36 43 47 50 52 40 67 73 55 72 78 78 71 30 30 33 24 20 25 34 57 61 68 79 79 69 59 47 19 29 15 14 15 14
22 25 16 13 16 18 8 9 17 43 33 18 24 37 50 35 49 40 48 74 64 68 73 87 54 29 51 45 59 30 19 32 58 60 58 54 43 59 50 21 9 13 24 19 30 46 23
26 28 22 20 21 15 8 9 34 44 19 17 30 50 45 40 43 57 77 69 60 89 58 34 39 46 43 34 25 32 21 24 48 50 60 35 34 32 29 34 30 49 27 44 31 34 52
25 29 22 21 21 12 8 15 46 29 15 28 53 60 76 51 85 80 69 86 84 33 30 34 39 37 23 16 18 20 26 33 30 42 32 14 36 33 52 71 68 72 37 33 33 35 34
26 26 22 20 18 10 8 36 39 16 20 50 44 68 46 80 73 84 78 38 23 28 32 36 35 28 22 18 15 13 13 15 26 62 23 35 37 70 90 85 82 73 69 73 68 56 43
30 24 19 19 13 9 13 44 22 15 36 57 38 68 18 62 75 55 17 24 29 30 29 24 18 13 13 12 9 9 12 20 19 23 31 31 25 25 33 31 36 54 62 71 65 56 56
27 21 17 14 12 8 26 36 16 23 48 45 23 33 25 12 16 16 26 29 27 21 19 16 22 28 26 26 26 27 23 22 22 22 21 30 36 32 25 22 23 23 25 22 18 17 20
26 19 16 14 12 15 36 24 16 32 45 40 17 13 14 13 17 21 20 18 19 22 25 25 23 18 16 18 18 19 21 21 22 22 24 31 25 19 17 16 20 25 26 26 25 23 23
27 20 18 16 10 30 34 16 27 39 41 23 12 13 14 18 16 18 18 20 24 26 17 15 10 8 9 9 9 10 12 13 16 21 30 25 19 23 26 28 25 21 16 16 17 20 20
40 27 20 13 11 40 24 18 34 42 28 22 11 14 14 15 17 21 22 23 20 16 10 9 8 9 10 8 10 9 9 10 16 21 30 24 19 18 13 12 16 20 21 19 21 23 22
52 34 18 19 28 41 22 25 41 43 28 11 11 12 12 16 21 24 19 13 14 8 9 10 10 10 10 10 10 9 8 8 9 8 11 14 13 13 16 19 22 26 29 30 27 22 21
40 42 31 30 42 37 22 36 43 40 26 10 12 11 14 19 21 19 13 17 18 9 10 11 12 11 10 9 7 6 6 6 7 8 11 15 20 23 22 26 29 25 20 21 21 21 22
62 44 37 40 61 34 18 42 46 32 19 10 13 13 18 19 17 15 15 44 12 11 12 11 10 9 7 6 5 5 6 7 10 11 13 21 21 26 29 30 22 21 21 22 20 19 18
74 54 48 57 62 20 24 44 46 24 12 10 16 17 17 16 15 12 25 19 14 12 10 9 6 7 12 13 10 8 9 13 12 14 20 20 28 31 31 26 25 23 23 21 17 16 15
71 65 72 92 48 16 29 44 41 22 10 12 17 19 18 14 14 10 12 13 12 12 10 8 7 18 27 21 17 17 17 17 16 23 18 26 31 31 29 27 27 28 25 18 16 17 16
45 84 89 100 40 17 37 41 28 19 10 12 19 19 17 14 15 11 9 13 13 12 11 8 7 25 30 27 24 26 24 27 22 20 24 31 31 31 25 25 25 22 18 18 18 17 17
78 90 100 96 30 22 43 36 21 17 9 11 16 18 15 14 12 10 9 11 13 12 10 7 5 23 28 25 26 26 28 26 23 26 31 29 27 24 20 18 18 18 19 18 19 18 18
45 86 99 82 24 38 41 31 18 13 9 10 15 19 15 16 16 10 9 10 12 10 7 6 5 14 32 28 29 23 24 24 26 31 32 27 25 20 17 17 17 18 18 19 20 19 19
100 94 98 66 30 51 44 28 14 11 8 11 16 18 16 15 13 10 10 10 11 10 6 6 5 9 28 30 22 23 22 22 27 32 33 26 20 16 15 15 15 16 18 18 19 19 19
43 91 100 38 52 59 43 20 12 10 8 12 15 16 15 14 13 12 12 12 10 10 6 6 5 6 24 30 28 22 17 15 19 27 32 32 26 18 16 17 14 18 18 19 18 19 20
72 100 78 48 68 55 22 17 9 9 7 11 13 13 14 14 14 13 11 10 10 9 6 6 5 5 7 27 29 29 28 18 16 16 22 27 29 26 22 18 17 16 18 19 19 19 21
92 99 52 63 82 36 18 14 8 8 7 9 11 11 11 12 12 12 11 10 10 9 7 6 5 5 5 5 14 24 26 28 26 17 17 18 20 23 21 20 15 16 20 21 20 19 22
100 98 60 71 85 33 17 12 9 8 9 8 10 11 10 10 11 11 10 11 10 9 8 6 6 5 5 5 5 5 9 16 20 22 17 16 19 21 23 20 16 21 22 21 21 22 22
100 96 76 76 98 45 17 13 9 9 10 8 8 10 11 9 10 10 11 11 11 10 9 8 7 6 5 5 5 5 5 6 7 12 21 24 20 21 23 22 17 22 21 22 24 24 23
100 88 92 92 96 81 54 15 10 10 10 13 11 8 8 9 9 10 14 15 14 12 9 8 7 7 6 6 6 5 5 5 6 7 18 28 37 32 30 27 25 24 23 23 24 23 23

GFSGBSN_500_rhum_030.txt.gz
RH
28 25 22 19 16 15 11 11 11 13 17 12 10 20 46 25 30 35 35 38 36 33 45 46 37 31 31 45 53 57 48 42 38 23 22 34 50 78 90 99 98 93 92 96 92 91 71
37 28 27 24 17 14 11 9 10 15 16 11 9 26 38 22 34 36 39 40 30 42 52 54 39 39 39 50 60 56 47 37 25 20 62 93 98 92 79 75 84 96 86 86 77 75 54
54 43 28 24 18 15 12 12 13 21 18 9 10 32 21 23 34 37 44 38 43 54 58 56 45 32 47 62 57 53 41 26 20 42 95 97 96 87 84 96 96 91 83 83 64 61 57
48 56 36 25 20 17 12 10 12 19 18 9 13 31 21 27 37 44 46 42 42 39 51 68 53 46 65 61 49 45 29 24 24 70 82 95 98 95 93 87 78 73 74 61 34 30 6
30 40 52 36 29 24 23 10 10 14 16 9 22 31 20 32 40 47 52 57 43 52 55 69 60 66 74 54 42 36 28 44 53 84 100 96 97 92 76 75 70 62 54 32 14 4 6
9 22 42 56 34 33 32 16 17 19 14 10 34 23 20 29 45 45 51 56 44 78 50 69 70 80 48 43 37 39 33 60 72 94 98 89 91 83 75 63 51 34 37 13 6 10 13
5 8 23 41 43 37 34 27 22 20 11 18 37 17 22 35 50 43 50 45 70 63 68 81 84 52 39 36 37 51 49 90 79 92 98 88 85 90 86 64 52 14 18 13 14 11 12
2 4 9 30 36 38 30 27 22 18 11 38 24 19 32 52 44 33 47 64 69 71 92 78 38 40 55 73 71 62 66 87 82 99 91 62 50 53 53 56 32 10 27 34 40 22 25
2 1 4 17 31 33 29 24 20 16 17 37 17 34 44 60 54 55 66 67 89 86 50 39 45 53 34 25 32 50 74 70 46 74 56 56 44 43 48 75 37 65 32 44 58 61 44
2 1 2 9 22 26 23 20 17 13 28 24 24 46 53 61 66 71 81 84 89 37 34 37 36 26 18 17 18 35 50 56 59 48 62 52 44 35 90 66 66 70 65 32 47 56 51
1 2 7 9 22 23 20 17 16 13 30 17 42 38 47 50 74 77 44 27 30 38 37 32 26 24 20 16 17 20 25 26 25 32 29 27 32 38 62 58 28 27 27 26 30 34 27
84 22 15 15 23 21 18 15 12 18 27 26 47 34 33 20 49 33 20 31 35 32 25 17 15 15 14 13 11 10 10 12 14 23 24 38 43 48 43 30 23 20 19 18 18 20 20
66 72 26 24 21 19 16 14 12 24 22 41 45 26 24 20 17 17 28 27 23 19 14 22 26 29 32 28 24 21 18 20 25 28 26 28 31 31 24 20 17 22 24 20 18 14 16
80 45 29 25 22 17 14 13 15 27 20 44 42 14 14 14 16 24 24 19 19 25 26 26 23 19 21 20 21 20 18 20 19 23 26 26 25 24 20 25 25 15 13 18 19 18 21
99 66 60 39 29 21 15 14 26 27 26 44 27 11 12 19 19 19 19 23 25 26 21 16 11 9 10 9 10 10 9 10 12 20 27 30 30 24 16 14 15 22 22 25 29 23 19
64 88 65 68 53 27 20 34 31 19 36 37 14 12 15 16 15 20 24 25 24 16 11 9 9 10 10 10 10 10 10 10 10 11 14 14 13 13 17 21 24 27 30 25 21 20 20
100 98 68 75 56 38 55 44 20 30 43 26 10 12 15 14 19 22 24 20 17 9 9 11 11 11 11 10 11 10 10 9 8 9 10 12 15 30 25 25 31 28 21 22 22 18 16
98 76 98 89 69 64 61 25 22 41 41 16 10 13 14 16 20 20 20 13 16 9 11 12 13 12 11 10 10 9 7 7 8 10 12 15 21 26 28 32 28 22 23 23 21 18 16
99 100 100 70 72 67 63 18 38 43 33 11 11 14 15 17 16 18 14 34 16 12 12 11 9 7 10 15 15 9 8 8 9 13 13 18 22 27 31 29 25 26 29 29 23 17 17
100 100 74 81 63 68 50 21 43 40 27 12 15 17 18 16 16 16 13 33 16 14 13 11 8 9 25 27 21 17 14 14 15 16 18 22 27 30 32 31 30 29 29 25 18 18 18
100 76 73 52 64 62 38 32 44 35 26 12 14 14 15 15 13 13 15 30 16 16 13 11 8 8 29 34 27 25 24 22 21 22 24 23 30 31 29 25 24 22 20 18 19 18 19
76 54 61 58 71 55 29 45 41 31 24 11 14 16 17 17 16 13 10 12 14 14 12 10 8 6 23 34 30 26 27 26 27 24 24 28 31 30 27 23 19 17 18 18 17 17 18
57 64 65 87 99 65 30 52 45 26 22 11 14 18 19 19 16 13 9 10 14 14 12 10 7 6 17 34 28 25 24 24 23 23 26 30 28 26 21 19 17 14 16 16 17 18 18
56 68 77 95 100 49 44 65 40 24 20 13 15 20 20 18 18 15 10 11 14 14 12 10 6 6 10 25 27 20 21 20 18 21 24 29 31 26 22 19 14 12 14 16 18 20 19
54 91 100 100 85 32 60 57 38 22 18 13 16 20 20 20 20 16 13 13 13 13 12 10 6 6 5 7 25 27 24 20 16 15 16 20 25 29 26 21 15 16 18 19 20 21 20
55 68 96 100 99 51 63 64 30 19 16 12 14 17 20 21 19 17 14 15 14 12 12 12 8 6 5 5 6 15 25 26 26 25 22 16 16 16 16 15 11 14 19 20 20 16 23
68 99 82 91 87 68 56 51 25 16 14 13 21 14 18 20 19 16 15 16 14 13 12 12 10 7 6 6 5 5 5 6 11 17 26 30 28 21 17 14 10 16 20 23 23 22 20
66 89 94 80 76 59 71 38 20 14 12 15 19 14 18 19 19 17 15 15 14 13 13 13 10 8 7 7 6 6 5 6 6 7 8 10 14 19 24 24 21 27 27 27 26 26 25
61 89 98 90 72 96 32 20 17 11 17 100 69 17 15 16 16 14 14 13 13 12 12 12 11 10 8 8 7 6 6 5 5 5 7 8 12 11 15 19 27 31 36 37 36 34 32

GFSGBSN_500_rhum_033.txt.gz
RH
39 37 38 37 35 30 28 23 20 16 14 12 12 20 20 8 18 27 33 36 36 39 40 33 37 39 33 28 35 46 55 52 43 41 40 27 26 24 53 100 96 95 90 96 93 95 83
43 42 38 39 42 38 31 27 24 17 15 12 14 20 18 8 23 27 36 37 41 38 31 41 47 46 36 34 44 54 56 44 38 32 21 42 75 89 75 78 96 98 96 94 89 73 74
38 46 48 48 50 51 47 29 23 17 15 12 12 16 15 9 24 25 34 39 42 36 48 56 55 58 37 42 52 56 54 45 31 44 83 93 78 78 88 97 98 96 91 84 83 90 71
24 38 38 38 48 55 55 35 24 20 23 17 18 19 14 14 27 25 36 45 48 42 40 56 55 72 40 50 52 58 53 32 33 88 90 89 88 96 99 97 92 97 90 76 50 41 56
10 13 17 23 29 45 50 43 26 24 28 29 25 22 12 20 21 25 39 46 52 58 44 44 64 77 48 63 54 51 39 32 84 100 100 99 99 92 93 88 80 69 56 58 38 37 18
7 8 8 10 13 27 36 55 32 27 38 36 26 20 11 24 20 24 40 45 51 60 46 54 72 81 63 61 56 44 35 51 93 100 100 94 98 83 80 77 73 61 61 52 23 14 12
8 6 5 4 6 8 19 36 56 34 34 32 24 19 14 26 20 28 49 50 55 52 68 58 80 82 71 52 45 38 39 77 99 98 100 100 93 84 80 65 59 37 39 28 18 11 14
2 4 6 6 2 4 8 23 43 39 35 24 22 16 22 22 21 43 41 49 50 66 65 72 84 85 64 40 39 41 46 84 94 100 100 99 86 97 86 78 71 40 40 58 17 23 22
4 2 1 2 4 2 2 12 24 28 28 21 20 15 28 21 28 46 39 39 63 67 72 95 88 49 40 43 40 55 53 87 99 99 97 90 65 56 57 55 62 39 77 81 57 65 44
2 4 2 1 2 2 2 4 15 22 24 20 18 20 25 23 35 59 53 67 69 78 90 76 44 47 60 63 59 61 80 97 97 99 94 82 65 52 61 65 82 46 25 20 28 42 32
1 1 1 1 2 2 2 3 8 20 19 19 18 26 24 28 50 67 78 75 90 100 64 41 47 47 19 19 28 40 55 88 96 90 98 85 72 59 59 55 30 66 82 76 58 27 24
1 1 1 1 1 1 1 3 7 14 18 19 17 23 27 38 60 77 80 52 46 35 36 38 35 22 18 17 19 25 47 75 82 83 54 58 45 43 36 30 66 44 31 29 28 20 14
1 1 1 1 1 1 1 5 10 13 17 17 20 24 30 40 50 66 61 25 29 32 36 34 26 20 17 16 17 18 24 32 28 26 24 29 31 42 47 49 43 35 21 18 20 21 14
1 1 1 1 1 2 5 15 14 16 16 15 23 29 30 28 26 44 22 28 28 29 20 16 16 16 15 12 11 11 12 11 14 19 28 30 38 37 35 34 25 19 22 23 13 16 19
1 1 1 100 31 10 15 25 22 21 16 18 23 28 32 21 22 18 25 24 23 19 17 23 30 31 30 26 23 22 22 22 23 26 30 30 26 27 27 30 28 21 12 16 22 26 19
1 1 7 84 26 18 27 46 42 23 20 24 27 32 39 14 24 18 25 21 17 21 27 27 23 19 19 18 17 12 12 12 11 14 18 22 24 25 24 18 13 13 21 27 25 19 20
1 16 91 100 56 26 51 90 72 40 40 22 31 39 32 24 28 21 20 16 22 27 26 19 13 11 11 11 10 10 10 10 10 11 12 14 16 16 14 14 19 24 30 25 21 20 16
28 100 100 74 30 43 98 100 65 63 34 21 36 40 22 21 16 18 18 20 27 24 17 12 10 10 11 11 11 11 10 10 9 9 9 11 12 15 25 23 24 31 25 22 22 22 19
100 100 98 96 58 54 100 99 64 54 29 35 42 23 42 22 14 16 20 23 25 19 11 11 12 12 13 12 12 12 11 9 7 9 9 11 12 18 26 23 29 24 23 25 26 26 21
100 100 98 44 89 100 100 77 74 40 44 42 30 18 40 15 18 22 20 17 18 14 10 13 13 10 8 10 16 14 9 8 7 8 12 14 15 21 27 29 30 25 27 28 27 25 18
100 98 73 100 100 100 85 72 60 50 44 39 22 19 30 13 20 20 18 17 21 13 15 13 10 8 12 28 30 23 16 13 12 12 15 14 19 23 29 30 27 23 25 24 22 18 18
100 77 85 95 100 97 67 73 43 50 42 28 18 22 28 21 25 17 14 28 18 16 16 13 11 8 8 29 35 31 23 22 22 20 18 20 22 24 29 28 24 22 20 18 18 18 17
98 100 100 100 87 66 72 57 47 47 38 28 28 26 24 26 22 16 13 38 19 18 16 15 12 8 8 25 35 31 28 27 28 25 23 21 21 26 26 25 22 16 18 17 17 16 16
100 100 97 65 56 71 72 44 54 44 36 33 29 26 21 25 24 16 14 26 22 15 16 15 12 8 6 12 30 26 27 24 21 20 20 21 23 27 28 24 16 17 18 20 20 17 17
100 84 57 50 68 68 54 45 58 45 38 31 38 26 25 27 27 20 16 14 12 14 14 15 14 9 6 6 14 28 26 19 17 16 16 17 19 19 18 21 17 19 21 23 23 21 25
84 64 50 59 63 55 42 65 60 63 46 31 34 29 28 28 22 22 18 14 14 15 17 15 14 13 7 6 6 6 18 27 26 25 24 22 17 15 14 12 10 12 15 16 16 14 19
68 60 61 66 90 75 56 68 66 97 36 32 32 32 40 28 26 23 19 17 15 15 16 15 14 13 11 7 6 6 5 6 6 9 16 19 17 14 15 12 8 18 21 22 20 19 20
69 73 84 94 100 58 57 70 98 67 31 29 24 33 35 26 28 22 21 17 18 17 17 16 15 13 12 10 8 8 7 7 7 8 8 8 8 9 10 9 11 13 13 14 15 18 22
99 99 96 100 93 72 72 67 97 58 29 26 26 40 39 28 27 24 22 22 20 17 17 16 13 12 12 12 10 9 8 8 8 8 8 8 8 8 8 10 12 9 10 12 17 27 34